This demonstration page uses our WeatherBlox Daily Observations layout. Learn more.

Left ArrowRight Arrow

36.17497, -115.13722

Hourly Observations for May 25, 2022

Temp ( °F °C ) Dew Point ( °F °C ) Humidity (%) Winds ( mph kmh ) Pressure ( in mb ) Visibility ( mi km ) Precip ( " mm )
12:53 am 00:53 Clear 76 24.4 23 -5 14 14 WNW 6 9 29.79 1009 10 16 0.00 0.00
1:53 am 01:53 Clear 73 22.8 23 -5 15 15 NW 7 11 29.79 1009 10 16 0.00 0.00
2:53 am 02:53 Clear 73 22.8 24 -4.4 16 16 N 9 15 29.80 1009 10 16 0.00 0.00
3:53 am 03:53 Clear 72 22.2 24 -4.4 17 17 WNW 3 6 29.83 1010 10 16 0.00 0.00
4:53 am 04:53 Clear 71 21.7 27 -2.8 19 19 Calm 29.85 1011 10 16 0.00 0.00
5:53 am 05:53 Sunny 69 20.6 26 -3.3 20 20 WNW 3 6 29.88 1012 10 16 0.00 0.00
6:53 am 06:53 Sunny 76 24.4 25 -3.9 15 15 NW 5 7 29.89 1012 10 16 0.00 0.00
7:53 am 07:53 Sunny 82 27.8 26 -3.3 13 13 Calm 29.90 1013 10 16 0.00 0.00
8:53 am 08:53 Sunny 85 29.4 25 -3.9 11 11 Calm 29.91 1013 10 16 0.00 0.00
9:53 am 09:53 Sunny 89 31.7 23 -5 9 9 NNE 6 9 29.91 1013 10 16 0.00 0.00
10:53 am 10:53 Sunny 90 32.2 23 -5 9 9 S 8 13 29.91 1013 10 16 0.00 0.00
11:53 am 11:53 Sunny 93 33.9 22 -5.6 7 7 E 10 17 29.90 1012 10 16 0.00 0.00
12:53 pm 12:53 Sunny 95 35 23 -5 7 7 ENE 7 11 29.87 1012 10 16 0.00 0.00
1:53 pm 13:53 Sunny 94 34.4 24 -4.4 8 8 VRB 3 6 29.85 1011 10 16 0.00 0.00
2:53 pm 14:53 Sunny 96 35.6 24 -4.4 7 7 undefined N/A 29.82 1010 10 16 0.00 0.00
3:53 pm 15:53 Sunny 96 35.6 24 -4.4 7 7 VRB 6 9 29.80 1009 10 16 0.00 0.00
4:53 pm 16:53 Sunny 98 36.7 24 -4.4 7 7 Calm 29.77 1008 10 16 0.00 0.00
5:53 pm 17:53 Sunny 98 36.7 23 -5 7 7 E 6 9 29.76 1008 10 16 0.00 0.00
6:53 pm 18:53 Sunny 98 36.7 23 -5 7 7 ENE 8 13 29.74 1007 10 16 0.00 0.00
7:53 pm 19:53 Clear 96 35.6 23 -5 7 7 ENE 5 7 29.75 1007 10 16 0.00 0.00
8:53 pm 20:53 Clear 91 32.8 22 -5.6 8 8 ENE 6 9 29.76 1008 10 16 0.00 0.00
9:53 pm 21:53 Clear 89 31.7 27 -2.8 11 11 WNW 6 9 29.78 1009 10 16 0.00 0.00
10:53 pm 22:53 Clear 85 29.4 33 0.6 15 15 WNW 6 9 29.79 1009 10 16 0.00 0.00
11:53 pm 23:53 Clear 82 27.8 31 -0.6 16 16 NW 5 7 29.78 1009 10 16 0.00 0.00

Powered by AerisWeather